Regional Weather Roundup
Issued by NWS Goodland, KS

Home | Current Version | Previous Version | Text Only | Print | Product List | Glossary Off
Versions: 1 2 3 4 5 6 7 8 9 10 11 12 13 14 15 16 17 18 19 20 21 22 23 24 25 26 27 28 29 30 31 32 33 34 35 36 37 38 39 40 41 42 43 44 45 46 47 48 49 50

000
ASUS43 KGLD 231908
RWRGLD

GOODLAND FORECAST AREA HOURLY WEATHER ROUNDUP
NATIONAL WEATHER SERVICE GOODLAND KS
1200 PM MST TUE JAN 23 2018

...OFFICIAL OBSERVATIONS...

CITY           SKY/WX    TMP DP  RH WIND       PRES   REMARKS
GOODLAND KS    SUNNY     32  22  66 NW13      30.24F
HILL CITY KS   MOSUNNY   39  27  62 NW13      30.23F
IMPERIAL NEB   SUNNY     35  23  61 NW16      30.22F
MCCOOK NEB     SUNNY     33  24  69 NW18      30.22F
AKRON CO       SUNNY     30  18  60 NW8       30.23F
BURLINGTON CO  SUNNY     33  21  61 NW10      30.25F
LIMON CO       SUNNY     35  13  40 NW5       30.23F
$$

...UNOFFICIAL OBSERVATIONS...

CITY           SKY/WX    TMP DP  RH WIND       PRES   REMARKS
COLBY KS       SUNNY     36  30  80 NW13      30.25S
LENORA KS        N/A     35  32  89 NW5G12      N/A
NORTON KS      SUNNY     36  23  60 W13       30.21
SHARON SPRINGS   N/A     38  26  61 NW15        N/A
YUMA CO        FAIR      34  19  55 W15       30.23F
$$




USA.gov is the U.S. government's official web portal to all federal, state and local government web resources and services.